Location: Oakley
(37.9974°N, 121.7125°W)
Time: 05:45:46
(UTC+00:00)

Intercosmos 25 Rocket - Pass Details

Date: 13 February 2026
Orbit: 435 x 2957 km, 82.6° (Epoch: 5 March)

Event Time Altitude Azimuth Distance (km) Brightness Sun altitude
Exits shadow 13:53:59 - 335° (NNW) 1,782 5.6 -13.4°
Reaches altitude 10° 13:54:31 10° 332° (NNW) 1,565 5.3 -13.3°
Maximum altitude 13:57:22 31° 267° (W) 795 3.6 -12.7°
Drops below altitude 10° 14:00:22 10° 203° (SSW) 1,640 5.6 -12.1°
Sets 14:02:44 0° 192° (SSW) 2,671 6.8 -11.7°
